Wetterdaten: aktuell Montag, 23.09.2019 02:45
Datum Zeit Temp. A. Feuchte A. Luftdruck Regen Wind Richtung Richtung Sonnenschein UV Solar Taupunkt Windchill Windben Empfang
23.09.2019 02:45 13,7 C 70 % 1011,4 hPa 0,0 l/m 0,0 km/h (0 Bft) O 90 0 min 0,0 UV-I 0 W/m 8,3 C 13,7 C 1,6 km/h (1 Bft) 100,00 %
23.09.2019 02:40 13,7 C 69 % 1011,5 hPa 0,0 l/m 0,0 km/h (0 Bft) O 90 0 min 0,0 UV-I 0 W/m 8,1 C 13,7 C 1,6 km/h (1 Bft) 100,00 %
23.09.2019 02:35 13,7 C 69 % 1011,5 hPa 0,0 l/m 1,6 km/h (1 Bft) O 90 0 min 0,0 UV-I 0 W/m 8,1 C 13,7 C 3,2 km/h (1 Bft) 100,00 %
23.09.2019 02:30 13,8 C 68 % 1011,5 hPa 0,0 l/m 1,6 km/h (1 Bft) O 90 0 min 0,0 UV-I 0 W/m 8,0 C 13,8 C 3,2 km/h (1 Bft) 100,00 %
23.09.2019 02:25 13,9 C 69 % 1011,5 hPa 0,0 l/m 1,6 km/h (1 Bft) O 90 0 min 0,0 UV-I 0 W/m 8,3 C 13,9 C 3,2 km/h (1 Bft) 100,00 %
23.09.2019 02:20 13,9 C 70 % 1011,5 hPa 0,0 l/m 1,6 km/h (1 Bft) O 90 0 min 0,0 UV-I 0 W/m 8,5 C 13,9 C 3,2 km/h (1 Bft) 100,00 %
23.09.2019 02:15 13,7 C 69 % 1011,5 hPa 0,0 l/m 1,6 km/h (1 Bft) O 90 0 min 0,0 UV-I 0 W/m 8,1 C 13,7 C 3,2 km/h (1 Bft) 100,00 %
23.09.2019 02:10 14,0 C 69 % 1011,5 hPa 0,0 l/m 1,6 km/h (1 Bft) O 90 0 min 0,0 UV-I 0 W/m 8,4 C 14,0 C 3,2 km/h (1 Bft) 100,00 %
23.09.2019 02:05 14,2 C 68 % 1011,5 hPa 0,0 l/m 1,6 km/h (1 Bft) O 90 0 min 0,0 UV-I 0 W/m 8,4 C 14,2 C 3,2 km/h (1 Bft) 100,00 %
23.09.2019 02:00 14,2 C 69 % 1011,5 hPa 0,0 l/m 1,6 km/h (1 Bft) O 90 0 min 0,0 UV-I 0 W/m 8,6 C 14,2 C 3,2 km/h (1 Bft) 100,00 %
23.09.2019 01:55 14,2 C 68 % 1011,5 hPa 0,0 l/m 1,6 km/h (1 Bft) O-SO 112 0 min 0,0 UV-I 0 W/m 8,4 C 14,2 C 3,2 km/h (1 Bft) 100,00 %
23.09.2019 01:50 13,9 C 69 % 1011,5 hPa 0,0 l/m 1,6 km/h (1 Bft) S-SW 202 0 min 0,0 UV-I 0 W/m 8,3 C 13,9 C 3,2 km/h (1 Bft) 100,00 %
23.09.2019 01:45 13,9 C 69 % 1011,6 hPa 0,0 l/m 1,6 km/h (1 Bft) S 180 0 min 0,0 UV-I 0 W/m 8,3 C 13,9 C 3,2 km/h (1 Bft) 100,00 %
23.09.2019 01:40 14,1 C 69 % 1011,6 hPa 0,0 l/m 0,0 km/h (0 Bft) S 180 0 min 0,0 UV-I 0 W/m 8,5 C 14,1 C 1,6 km/h (1 Bft) 100,00 %
23.09.2019 01:35 14,2 C 68 % 1011,6 hPa 0,0 l/m 0,0 km/h (0 Bft) S 180 0 min 0,0 UV-I 0 W/m 8,4 C 14,2 C 3,2 km/h (1 Bft) 100,00 %
23.09.2019 01:30 14,4 C 67 % 1011,8 hPa 0,0 l/m 1,6 km/h (1 Bft) S 180 0 min 0,0 UV-I 0 W/m 8,4 C 14,4 C 3,2 km/h (1 Bft) 100,00 %
23.09.2019 01:25 14,2 C 68 % 1011,7 hPa 0,0 l/m 1,6 km/h (1 Bft) S 180 0 min 0,0 UV-I 0 W/m 8,4 C 14,2 C 3,2 km/h (1 Bft) 100,00 %
23.09.2019 01:20 13,7 C 70 % 1011,7 hPa 0,0 l/m 3,2 km/h (1 Bft) S 180 0 min 0,0 UV-I 0 W/m 8,3 C 13,7 C 6,4 km/h (2 Bft) 100,00 %
23.09.2019 01:15 13,4 C 72 % 1011,7 hPa 0,0 l/m 1,6 km/h (1 Bft) S-SW 202 0 min 0,0 UV-I 0 W/m 8,5 C 13,4 C 3,2 km/h (1 Bft) 100,00 %
23.09.2019 01:10 13,3 C 72 % 1011,7 hPa 0,0 l/m 1,6 km/h (1 Bft) S-SW 202 0 min 0,0 UV-I 0 W/m 8,4 C 13,3 C 3,2 km/h (1 Bft) 100,00 %
23.09.2019 01:05 13,1 C 73 % 1011,7 hPa 0,0 l/m 3,2 km/h (1 Bft) W-SW 247 0 min 0,0 UV-I 0 W/m 8,4 C 13,1 C 4,8 km/h (1 Bft) 100,00 %
23.09.2019 01:00 13,1 C 73 % 1011,6 hPa 0,0 l/m 0,0 km/h (0 Bft) W-SW 247 0 min 0,0 UV-I 0 W/m 8,4 C 13,1 C 3,2 km/h (1 Bft) 100,00 %
23.09.2019 00:55 13,5 C 71 % 1011,6 hPa 0,0 l/m 1,6 km/h (1 Bft) W-SW 247 0 min 0,0 UV-I 0 W/m 8,3 C 13,5 C 3,2 km/h (1 Bft) 100,00 %
23.09.2019 00:50 13,6 C 70 % 1011,7 hPa 0,0 l/m 0,0 km/h (0 Bft) W-SW 247 0 min 0,0 UV-I 0 W/m 8,2 C 13,6 C 1,6 km/h (1 Bft) 100,00 %
23.09.2019 00:45 13,4 C 70 % 1011,6 hPa 0,0 l/m 1,6 km/h (1 Bft) W-SW 247 0 min 0,0 UV-I 0 W/m 8,0 C 13,4 C 3,2 km/h (1 Bft) 100,00 %
23.09.2019 00:40 13,6 C 70 % 1011,6 hPa 0,0 l/m 1,6 km/h (1 Bft) W-SW 247 0 min 0,0 UV-I 0 W/m 8,2 C 13,6 C 3,2 km/h (1 Bft) 100,00 %
23.09.2019 00:35 13,7 C 69 % 1011,7 hPa 0,0 l/m 1,6 km/h (1 Bft) W-SW 247 0 min 0,0 UV-I 0 W/m 8,1 C 13,7 C 3,2 km/h (1 Bft) 100,00 %
23.09.2019 00:30 13,7 C 69 % 1011,7 hPa 0,0 l/m 0,0 km/h (0 Bft) W-SW 247 0 min 0,0 UV-I 0 W/m 8,1 C 13,7 C 1,6 km/h (1 Bft) 100,00 %
23.09.2019 00:25 13,9 C 69 % 1011,7 hPa 0,0 l/m 1,6 km/h (1 Bft) W-SW 247 0 min 0,0 UV-I 0 W/m 8,3 C 13,9 C 3,2 km/h (1 Bft) 100,00 %
23.09.2019 00:20 13,9 C 68 % 1011,8 hPa 0,0 l/m 1,6 km/h (1 Bft) W-SW 247 0 min 0,0 UV-I 0 W/m 8,1 C 13,9 C 3,2 km/h (1 Bft) 100,00 %
23.09.2019 00:15 13,9 C 68 % 1011,6 hPa 0,0 l/m 1,6 km/h (1 Bft) W-SW 247 0 min 0,0 UV-I 0 W/m 8,1 C 13,9 C 4,8 km/h (1 Bft) 100,00 %
23.09.2019 00:10 14,0 C 68 % 1011,6 hPa 0,0 l/m 1,6 km/h (1 Bft) W-SW 247 0 min 0,0 UV-I 0 W/m 8,2 C 14,0 C 4,8 km/h (1 Bft) 100,00 %
23.09.2019 00:05 14,0 C 69 % 1011,7 hPa 0,0 l/m 3,2 km/h (1 Bft) SW 225 0 min 0,0 UV-I 0 W/m 8,4 C 14,0 C 4,8 km/h (1 Bft) 100,00 %
23.09.2019 00:00 13,9 C 68 % 1011,7 hPa 0,0 l/m 3,2 km/h (1 Bft) SW 225 0 min 0,0 UV-I 0 W/m 8,1 C 13,9 C 4,8 km/h (1 Bft) 100,00 %
_ Min-Zeit 01:00 01:30 02:45 - 00:30 - - - - - 02:30 01:00 00:30 00:00
Minimum _ 13,1 C 67 % 1011,4 hPa - 0,0 km/h (0 Bft) - - - - - 8,0 C 13,1 C 1,6 km/h (1 Bft) 100,00 %
_ Max-Zeit 01:30 01:00 00:20 00:00 00:00 - - 00:00 00:00 00:00 02:00 01:30 01:20 00:00
Maximum _ 14,5 C 73 % 1011,8 hPa 0,0 l/m 3,2 km/h
SW (1 Bft)
- - 0 min 0,0 UV-I 0 W/m 8,6 C 14,4 C 6,4 km/h
S-SO (2 Bft)
100,00 %
Durchschnitt _ 13,8 C 69 % 1011,6 hPa #0,0 l/m 1,5 km/h (1 Bft) W-SW - #0 min. 0,0 UV-I 0 W/m 8,3 C 13,8 C 3,3 km/h (1 Bft) 100,00 %